Theta_e
331 331 331 331 332 332 332 332 333 333 332 332 332 331 331 331 331 330 330 331 330 331 331 331 330 330 330 329 329 329 329 328 328 327 327 327 326 326 326 326 326 326
331 331 331 331 331 331 332 332 332 333 332 332 332 331 331 331 331 330 330 330 330 330 330 330 330 330 329 329 329 329 328 328 327 327 327 327 326 326 326 326 326 326
329 330 331 331 331 331 331 332 332 332 332 332 332 331 331 331 330 330 330 330 329 329 329 329 330 329 329 329 328 328 328 328 327 327 327 327 326 326 326 326 326 326
325 329 330 330 331 331 331 331 331 331 331 332 331 331 331 330 330 330 329 329 329 329 329 329 329 329 329 328 328 328 328 327 327 327 327 326 326 326 326 326 326 325
316 321 326 329 330 330 330 331 331 331 331 331 331 331 331 330 330 329 329 328 328 328 328 329 329 329 329 328 328 328 327 327 327 327 327 326 326 326 326 325 325 325
308 312 316 320 325 328 330 330 330 330 330 330 330 330 330 330 329 329 329 328 328 328 327 328 328 328 328 328 328 327 327 327 327 327 326 326 326 326 325 325 325 325
305 306 309 312 316 321 325 328 329 330 330 330 330 330 330 330 329 329 329 328 328 328 327 328 328 328 328 328 327 327 327 326 326 326 326 326 326 326 325 325 325 325
302 303 305 308 310 314 318 322 325 328 329 329 330 330 330 330 330 329 329 328 328 328 328 327 327 328 328 327 327 327 327 326 326 326 326 326 325 325 325 325 325 325
301 302 303 304 306 309 312 316 319 323 326 328 329 330 330 330 330 329 329 329 328 328 327 327 327 327 327 327 327 327 326 326 326 325 325 325 325 325 325 325 325 324
299 300 301 301 303 305 307 309 312 316 320 324 326 328 329 329 330 330 329 329 328 328 328 327 327 327 327 327 326 326 326 326 326 326 325 325 325 325 325 325 324 324
298 299 299 300 300 301 302 304 306 310 314 318 322 324 327 328 329 329 329 329 329 328 328 327 327 327 327 326 326 326 326 326 326 325 325 325 325 325 325 324 324 324
297 298 299 299 299 300 300 301 303 305 308 312 316 320 323 325 327 328 328 328 329 328 328 327 327 327 327 326 326 326 326 326 326 326 325 325 325 325 324 324 324 324
296 297 298 298 299 299 299 300 301 302 304 306 310 314 317 321 323 326 327 328 328 327 327 327 327 327 327 326 326 326 325 325 325 325 325 325 324 324 324 324 324 324
295 296 297 297 297 297 298 298 299 300 301 303 305 308 311 315 319 322 325 326 326 326 326 327 326 326 326 326 326 326 325 325 325 325 325 325 324 324 324 324 324 324
295 295 296 297 297 297 297 297 298 298 299 301 302 304 307 310 314 317 321 323 324 324 325 325 325 325 325 325 325 325 325 325 324 324 324 324 324 324 324 323 323 323
294 295 295 296 297 297 297 297 297 297 298 299 300 302 304 307 309 313 316 319 321 322 322 323 324 324 324 325 325 325 324 324 324 324 324 324 324 323 323 323 323 323
294 294 295 295 296 296 297 297 296 297 297 298 299 300 302 304 306 309 312 315 318 319 320 321 322 323 324 324 324 324 324 324 324 324 323 323 323 323 322 322 322 322
293 293 294 294 295 295 296 296 296 296 297 297 298 299 300 301 303 306 309 312 315 317 318 319 320 321 322 322 323 324 324 323 323 323 323 322 322 322 322 321 321 321
292 292 293 293 294 294 295 295 296 296 297 297 297 298 298 299 301 303 306 308 311 314 316 317 318 319 320 321 322 322 323 322 322 322 322 322 321 321 321 320 320 320
291 292 292 293 293 293 294 294 295 296 296 296 297 297 298 298 300 301 304 306 308 310 312 314 316 318 319 320 321 321 321 321 320 320 320 320 320 320 320 319 319 318
291 291 291 292 292 292 293 294 294 295 296 296 296 297 297 297 298 300 302 303 305 307 308 311 313 315 317 319 320 320 320 319 318 318 318 318 319 319 318 318 318 317
291 291 291 291 291 292 292 293 293 294 295 295 296 296 297 297 298 299 300 301 303 304 306 307 310 312 314 316 318 318 317 317 316 315 316 316 316 316 316 316 316 316
290 291 291 290 290 291 291 292 292 293 293 294 295 296 296 297 298 299 299 301 302 303 304 305 307 309 311 313 315 316 315 314 313 313 313 313 314 314 314 314 314 314
290 290 290 290 290 290 290 291 291 292 292 293 294 295 296 296 297 298 298 299 301 302 303 304 305 307 309 311 312 313 312 311 311 310 310 311 311 312 312 312 312 312
289 289 289 290 290 290 290 290 291 291 291 292 293 294 295 295 296 297 297 298 300 300 301 303 304 305 307 309 309 309 309 309 308 308 308 308 308 308 308 308 308 307
288 288 289 289 289 289 290 290 290 290 291 291 292 292 293 294 295 296 296 297 299 299 300 302 303 303 304 307 307 306 305 306 306 306 307 306 305 305 305 304 304 303
Wind_Speed
29 29 28 28 28 30 30 30 29 28 29 29 28 29 31 29 25 26 30 29 26 25 25 24 25 27 28 30 30 29 28 27 25 24 25 27 28 28 27 27 27 25
28 29 28 28 29 30 30 31 30 30 29 29 30 31 33 34 33 31 32 33 30 25 24 22 23 25 27 27 29 28 26 26 26 24 24 26 27 27 27 28 28 27
30 30 29 30 30 31 31 31 31 32 30 29 31 34 34 34 34 33 33 34 32 25 24 24 22 24 25 25 26 27 26 25 24 24 24 24 24 25 26 25 26 27
27 30 32 34 34 32 32 31 32 36 34 32 34 36 36 33 31 30 31 33 32 26 24 23 22 23 24 23 23 24 25 25 23 22 22 23 24 24 24 23 24 26
24 26 29 32 34 33 31 32 35 38 37 37 37 35 34 32 30 31 30 30 33 32 29 26 24 24 23 21 23 24 25 24 22 22 23 23 24 23 24 24 24 25
25 23 25 28 30 31 31 31 35 37 37 38 37 35 35 33 31 31 30 31 35 36 35 31 28 26 22 21 23 24 24 24 22 22 24 24 23 23 23 24 25 26
29 26 24 24 26 29 30 32 33 35 37 37 35 34 35 35 33 32 32 35 37 37 37 38 37 34 27 22 24 26 24 23 22 23 24 24 23 23 23 23 25 26
33 30 27 24 24 25 27 30 31 32 34 35 34 35 34 34 35 34 33 34 37 40 42 44 43 40 34 25 23 27 25 22 21 23 25 25 24 24 23 22 25 26
34 33 31 29 26 24 24 25 27 29 31 32 34 35 32 32 34 34 32 34 38 39 40 43 43 41 38 30 24 26 26 23 23 24 24 26 26 26 25 23 25 28
34 35 36 34 30 28 27 26 25 26 28 30 32 33 32 32 33 33 33 34 38 36 32 36 42 42 38 32 26 25 25 25 25 24 24 26 27 27 27 26 27 30
34 35 36 37 36 34 33 32 29 27 26 27 29 31 32 32 33 34 34 34 33 31 27 29 36 38 34 29 27 26 25 25 25 24 25 27 27 28 28 29 29 29
33 34 35 37 38 37 36 35 33 30 28 27 27 28 29 32 33 33 34 35 32 29 27 26 27 28 29 28 27 27 25 25 25 24 26 28 29 29 29 30 30 28
34 35 35 35 36 37 38 37 36 34 32 30 28 27 28 31 33 33 33 34 34 30 27 26 25 25 26 27 26 26 26 25 25 25 26 27 30 30 29 28 28 27
34 35 34 36 39 41 40 38 37 37 35 33 31 29 29 30 31 33 34 34 35 33 30 30 30 28 27 27 25 25 26 26 27 27 27 26 27 30 30 29 28 27
34 33 33 36 40 42 42 41 40 39 37 34 33 32 30 30 30 32 34 35 36 36 34 33 34 33 32 32 29 27 26 25 26 28 29 29 29 30 32 32 31 30
32 32 33 34 35 36 38 40 41 40 38 37 35 32 31 30 30 31 33 36 37 35 35 35 36 38 38 38 36 33 29 27 28 31 33 33 33 32 33 33 34 34
30 31 32 32 33 33 33 37 41 42 41 39 36 33 32 30 30 31 34 36 36 34 34 37 40 42 42 41 40 39 36 34 34 36 36 35 34 34 34 34 35 35
29 30 31 31 32 33 34 37 40 43 42 40 39 37 34 32 29 30 33 35 35 34 35 37 40 42 42 41 41 42 41 39 38 37 37 37 36 35 35 34 34 34
28 29 30 31 32 34 36 37 37 37 38 40 42 40 36 34 31 28 28 31 32 35 36 37 38 40 40 40 40 41 41 40 39 37 37 37 36 35 35 33 32 32
27 28 28 30 31 33 35 35 34 34 35 37 39 38 36 36 34 28 25 26 28 32 35 37 38 39 38 38 39 39 40 40 39 38 36 36 36 36 35 34 33 33
27 28 28 29 30 31 33 34 33 33 33 34 34 35 37 39 36 31 28 26 26 27 30 34 37 38 38 37 38 38 38 38 38 37 35 34 34 35 35 35 34 33
28 29 29 30 30 29 30 31 33 34 33 32 33 35 36 36 35 35 32 28 26 24 25 30 34 35 36 36 36 36 36 36 36 36 34 33 33 34 34 33 33 32
30 29 30 32 32 31 30 29 31 34 35 32 31 31 31 30 31 35 34 30 26 24 23 26 29 32 34 34 34 34 34 34 35 34 32 32 32 32 32 32 32 32
30 30 30 31 32 33 33 31 31 34 36 34 30 29 29 30 30 34 36 32 27 24 24 25 27 29 30 31 31 32 33 34 34 32 30 30 30 30 30 31 31 30
29 30 30 30 31 32 33 33 33 34 35 36 33 29 29 30 30 32 36 35 30 28 29 29 28 28 28 28 29 30 31 32 31 28 27 27 28 28 28 29 29 29
29 29 30 30 30 31 32 33 34 34 34 35 35 34 31 30 30 31 35 37 34 32 31 31 29 29 28 27 27 29 31 30 25 23 26 27 26 28 29 29 29 29
Wind_Direction
248 246 245 245 246 246 245 246 247 243 238 238 238 238 240 242 240 237 237 239 237 232 231 232 233 231 229 229 228 227 227 227 227 227 227 227 226 226 226 225 223 224
264 259 255 251 249 248 247 247 248 247 243 241 241 242 244 244 244 244 244 245 242 237 232 231 232 232 230 228 227 226 226 226 226 225 223 223 225 227 228 227 225 224
280 274 269 263 257 253 252 252 252 253 252 247 245 247 246 245 245 245 246 245 243 239 236 233 231 231 230 227 225 224 223 223 223 223 222 223 225 226 227 227 226 224
292 284 277 272 267 263 261 260 259 259 257 253 250 250 249 247 247 246 246 245 241 235 232 232 230 230 229 226 224 223 223 223 223 221 221 222 223 223 224 224 225 225
311 296 285 278 274 271 266 263 263 263 259 256 254 253 252 250 247 246 245 244 242 239 235 231 228 229 228 225 223 223 223 223 221 219 220 222 223 222 223 224 224 225
332 317 301 290 283 278 272 264 261 261 260 258 258 256 253 249 244 243 244 244 244 244 239 233 228 226 225 224 224 223 223 222 220 218 219 221 224 223 223 224 224 225
345 337 322 308 296 287 281 273 266 263 262 262 261 258 254 251 248 245 245 246 248 247 243 238 235 231 224 222 224 223 222 222 220 217 218 220 222 224 223 223 224 225
351 348 340 330 315 300 289 282 277 272 269 267 265 262 259 256 255 252 248 247 248 246 243 240 239 235 228 221 222 225 223 221 220 217 218 219 220 222 222 221 224 226
350 348 346 342 333 319 305 294 286 280 275 271 267 265 262 259 256 254 250 246 244 242 239 239 239 237 232 224 221 226 225 222 221 219 218 219 219 222 222 221 223 226
347 347 348 346 340 331 324 316 304 290 281 274 270 267 264 261 257 253 249 245 243 242 239 239 240 239 234 227 224 228 227 225 224 222 221 221 221 222 223 222 223 225
345 346 347 346 344 340 336 331 323 309 294 283 276 271 266 262 260 256 250 246 245 243 238 238 240 239 234 227 226 229 228 227 226 224 224 224 224 224 224 223 223 225
343 342 342 343 343 342 340 337 332 324 312 298 286 278 272 266 262 258 254 250 247 243 239 238 238 235 231 227 227 228 228 227 227 226 226 226 226 225 225 225 226 227
340 340 339 339 339 340 341 340 337 334 326 315 303 289 278 271 266 262 258 253 249 244 241 239 236 233 232 229 226 227 227 227 226 226 226 227 227 227 226 227 228 228
337 337 337 337 338 340 342 341 340 338 333 325 316 303 288 278 271 266 262 258 252 247 244 242 239 238 236 231 226 226 227 227 226 225 225 225 226 227 227 228 228 227
334 334 334 334 337 339 340 341 341 340 337 332 325 316 303 289 279 271 264 259 255 250 247 244 240 238 237 233 228 226 226 227 226 225 225 226 226 227 228 229 229 228
332 333 332 332 333 334 335 338 339 339 338 336 330 322 313 302 288 276 267 260 256 251 247 243 239 238 238 236 233 230 227 227 227 227 227 227 227 227 228 228 228 229
330 331 331 330 330 330 331 332 334 336 336 338 336 328 320 312 296 281 270 261 256 251 246 243 241 241 241 239 237 235 231 229 230 230 228 227 227 226 227 227 227 228
328 328 329 329 328 328 329 329 331 334 335 336 336 332 326 317 301 286 275 266 258 252 248 245 244 243 242 240 239 237 234 231 231 231 228 227 226 226 227 227 226 226
326 326 326 327 327 326 327 328 328 328 330 332 333 333 330 322 311 295 280 269 260 254 250 248 246 245 242 240 240 238 235 232 230 230 230 228 226 226 226 226 225 224
324 324 323 323 324 325 325 326 325 323 325 329 330 331 329 324 317 303 287 276 265 257 253 250 248 247 245 243 241 240 237 233 230 230 231 229 227 227 227 226 226 224
322 322 321 320 321 323 323 323 323 321 322 324 325 325 325 324 319 309 298 287 274 264 258 254 252 250 247 245 243 241 238 234 230 229 230 229 228 228 227 227 226 225
320 319 319 319 319 320 320 320 320 320 320 321 321 322 323 323 320 314 305 293 282 273 262 257 256 253 249 247 244 241 237 232 227 226 226 226 225 225 225 224 224 223
317 317 316 316 317 316 315 315 317 316 317 318 318 317 317 317 316 313 308 298 286 277 267 262 261 258 253 249 245 240 234 227 222 219 219 219 220 220 220 221 222 222
313 312 312 312 313 313 312 312 312 313 313 314 314 311 310 310 311 310 307 299 288 279 272 267 264 263 258 250 243 238 230 220 215 212 211 212 213 215 216 218 221 223
308 308 307 308 308 309 309 309 309 310 310 311 311 308 305 306 307 307 304 299 290 282 278 272 265 263 260 249 240 233 223 214 209 207 207 208 208 210 214 217 220 222
305 305 304 304 304 306 306 305 306 307 307 308 309 308 306 303 302 302 301 297 291 285 282 275 265 261 258 249 238 229 220 212 208 208 208 207 207 208 210 214 216 218